| time (UTC) | temp F | wind direction | speed knots | gust knots | rain 1hr in | rain 24hr in | rain mn in | humidity % | barometer mb |
| 20260506102629 | 63 | 224 | 0.9 | 3.5 | 0.00 | 0.00 | 0.00 | 71 | 1009.3 |
| 20260506101906 | 63 | 257 | 0.9 | 3.5 | 0.00 | 0.00 | 0.00 | 71 | 1009.4 |
| 20260506101407 | 63 | 295 | 0.9 | 3.5 | 0.00 | 0.00 | 0.00 | 71 | 1009.5 |
| 20260506100906 | 63 | 262 | 0.9 | 5.2 | 0.00 | 0.00 | 0.00 | 70 | 1009.4 |
| 20260506100407 | 63 | 272 | 1.7 | 5.2 | 0.00 | 0.00 | 0.00 | 70 | 1009.4 |
| 20260506095907 | 63 | 245 | 1.7 | 6.1 | 0.00 | 0.00 | 0.00 | 70 | 1009.2 |
| 20260506095407 | 63 | 309 | 1.7 | 6.1 | 0.00 | 0.00 | 0.00 | 70 | 1009.2 |
| 20260506095130 | 63 | 259 | 1.7 | 7.0 | 0.00 | 0.00 | 0.00 | 70 | 1009.3 |
| 20260506094406 | 63 | 276 | 2.6 | 7.8 | 0.00 | 0.00 | 0.00 | 70 | 1009.3 |
| 20260506093907 | 63 | 303 | 1.7 | 7.8 | 0.00 | 0.00 | 0.00 | 70 | 1009.3 |
| 20260506093404 | 63 | 214 | 1.7 | 6.1 | 0.00 | 0.00 | 0.00 | 70 | 1009.2 |
| 20260506092903 | 63 | 270 | 1.7 | 6.1 | 0.00 | 0.00 | 0.00 | 70 | 1009.2 |
| 20260506092404 | 63 | 231 | 1.7 | 6.1 | 0.00 | 0.00 | 0.00 | 70 | 1009.2 |
| 20260506091904 | 63 | 255 | 1.7 | 6.1 | 0.00 | 0.00 | 0.00 | 69 | 1009.2 |
| 20260506091404 | 64 | 291 | 1.7 | 4.3 | 0.00 | 0.00 | 0.00 | 69 | 1009.2 |
| 20260506090904 | 64 | 159 | 1.7 | 4.3 | 0.00 | 0.00 | 0.00 | 69 | 1009.2 |
| 20260506090630 | 64 | 264 | 0.9 | 4.3 | 0.00 | 0.00 | 0.00 | 69 | 1009.1 |
| 20260506085905 | 64 | 250 | 0.9 | 4.3 | 0.00 | 0.00 | 0.00 | 69 | 1009.2 |
| 20260506085405 | 64 | 284 | 0.9 | 5.2 | 0.00 | 0.00 | 0.00 | 68 | 1009.1 |
| 20260506084903 | 64 | 179 | 0.9 | 5.2 | 0.00 | 0.00 | 0.00 | 68 | 1009.1 |
| 20260506084404 | 64 | 278 | 1.7 | 5.2 | 0.00 | 0.00 | 0.00 | 68 | 1009.1 |
| 20260506083903 | 64 | 104 | 1.7 | 5.2 | 0.00 | 0.00 | 0.00 | 68 | 1009.1 |
| 20260506083628 | 64 | 286 | 1.7 | 6.1 | 0.00 | 0.00 | 0.00 | 67 | 1009.1 |
| 20260506083122 | 64 | 266 | 1.7 | 6.1 | 0.00 | 0.00 | 0.00 | 67 | 1009.1 |
| 20260506082402 | 64 | 186 | 1.7 | 7.0 | 0.00 | 0.00 | 0.00 | 67 | 1009.1 |
| 20260506082125 | 64 | 253 | 0.9 | 7.0 | 0.00 | 0.00 | 0.00 | 67 | 1009.1 |
| 20260506081402 | 64 | 300 | 0.9 | 7.0 | 0.00 | 0.00 | 0.00 | 67 | 1009.0 |
| 20260506080902 | 65 | 343 | 1.7 | 7.0 | 0.00 | 0.00 | 0.00 | 66 | 1009.1 |
| 20260506080617 | 64 | 274 | 0.9 | 5.2 | 0.00 | 0.00 | 0.00 | 66 | 1009.1 |
| 20260506080126 | 65 | 283 | 1.7 | 4.3 | 0.00 | 0.00 | 0.00 | 66 | 1009.0 |
| 20260506073400 | 65 | 276 | 0.9 | 5.2 | 0.00 | 0.00 | 0.00 | 65 | 1008.7 |
| 20260506072900 | 65 | 259 | 1.7 | 5.2 | 0.00 | 0.00 | 0.00 | 65 | 1008.7 |
| 20260506072400 | 65 | 266 | 0.9 | 5.2 | 0.00 | 0.00 | 0.00 | 65 | 1008.7 |
| 20260506071901 | 65 | 279 | 0.9 | 5.2 | 0.00 | 0.00 | 0.00 | 65 | 1008.7 |
| 20260506071400 | 65 | 262 | 0.9 | 5.2 | 0.00 | 0.00 | 0.00 | 64 | 1008.6 |
| 20260506071122 | 65 | 253 | 0.9 | 7.8 | 0.00 | 0.00 | 0.00 | 64 | 1008.6 |
| 20260506070400 | 65 | 276 | 0.9 | 7.8 | 0.00 | 0.00 | 0.00 | 64 | 1008.6 |
| 20260506070131 | 65 | 274 | 1.7 | 7.8 | 0.00 | 0.00 | 0.00 | 64 | 1008.6 |
| 20260506062359 | 65 | 243 | 0.9 | 5.2 | 0.00 | 0.00 | 0.00 | 63 | 1008.7 |
| 20260506062127 | 65 | 278 | 0.9 | 5.2 | 0.00 | 0.00 | 0.00 | 63 | 1008.6 |
| 20260506061358 | 65 | 229 | 0.9 | 3.5 | 0.00 | 0.00 | 0.00 | 63 | 1008.6 |
| 20260506060858 | 65 | 283 | 0.9 | 1.7 | 0.00 | 0.00 | 0.00 | 63 | 1008.7 |
| 20260506060359 | 65 | 255 | 0.0 | 2.6 | 0.00 | 0.00 | 0.00 | 63 | 1008.6 |
| 20260506050856 | 65 | 267 | 0.9 | 3.5 | 0.00 | 0.00 | 0.00 | 62 | 1009.2 |
| 20260506050838 | 65 | 265 | 0.9 | 6.1 | 0.00 | 0.00 | 0.00 | 61 | 1009.1 |
| 20260506044856 | 66 | 271 | 0.9 | 6.1 | 0.00 | 0.00 | 0.00 | 61 | 1009.2 |
| 20260506044356 | 66 | 278 | 0.9 | 4.3 | 0.00 | 0.00 | 0.00 | 60 | 1009.2 |
| 20260506044112 | 66 | 258 | 1.7 | 4.3 | 0.00 | 0.00 | 0.00 | 60 | 1009.2 |
| 20260506043353 | 66 | 267 | 1.7 | 4.3 | 0.00 | 0.00 | 0.00 | 60 | 1009.2 |
| 20260506042852 | 66 | 261 | 0.9 | 3.5 | 0.00 | 0.00 | 0.00 | 60 | 1009.2 |
| 20260506042352 | 67 | 251 | 0.9 | 6.1 | 0.00 | 0.00 | 0.00 | 59 | 1009.2 |
| 20260506041851 | 67 | 311 | 1.7 | 6.1 | 0.00 | 0.00 | 0.00 | 59 | 1009.2 |
| 20260506041351 | 67 | 264 | 1.7 | 7.0 | 0.00 | 0.00 | 0.00 | 59 | 1009.2 |
| 20260506041111 | 67 | 262 | 0.9 | 7.0 | 0.00 | 0.00 | 0.00 | 59 | 1009.2 |
| 20260506040349 | 67 | 239 | 0.9 | 7.0 | 0.00 | 0.00 | 0.00 | 59 | 1009.1 |
| 20260506040109 | 67 | 143 | 1.7 | 7.0 | 0.00 | 0.00 | 0.00 | 58 | 1009.1 |
| 20260506035350 | 67 | 267 | 1.7 | 7.0 | 0.00 | 0.00 | 0.00 | 58 | 1009.0 |
| 20260506034851 | 67 | 267 | 1.7 | 7.0 | 0.00 | 0.00 | 0.00 | 58 | 1009.0 |
| 20260506034351 | 67 | 260 | 1.7 | 10.4 | 0.00 | 0.00 | 0.00 | 58 | 1008.9 |
| 20260506034111 | 67 | 276 | 0.9 | 10.4 | 0.00 | 0.00 | 0.00 | 58 | 1009.0 |
| 20260506033348 | 68 | 241 | 1.7 | 10.4 | 0.00 | 0.00 | 0.00 | 58 | 1009.0 |
| 20260506032848 | 68 | 233 | 1.7 | 10.4 | 0.00 | 0.00 | 0.00 | 58 | 1009.0 |
| 20260506032605 | 68 | 203 | 1.7 | 6.1 | 0.00 | 0.00 | 0.00 | 58 | 1009.0 |
| 20260506031849 | 68 | 248 | 1.7 | 6.1 | 0.00 | 0.00 | 0.00 | 58 | 1009.0 |
| 20260506031348 | 68 | 236 | 1.7 | 6.1 | 0.00 | 0.00 | 0.00 | 58 | 1008.9 |
| 20260506031109 | 68 | 267 | 1.7 | 6.1 | 0.00 | 0.00 | 0.00 | 58 | 1008.9 |
| 20260506030350 | 69 | 271 | 1.7 | 6.1 | 0.00 | 0.00 | 0.00 | 57 | 1008.8 |
| 20260506025849 | 69 | 223 | 1.7 | 7.0 | 0.00 | 0.00 | 0.00 | 57 | 1008.8 |
| 20260506025617 | 69 | 289 | 1.7 | 7.0 | 0.00 | 0.00 | 0.00 | 57 | 1008.7 |
| 20260506024902 | 69 | 218 | 0.9 | 7.0 | 0.00 | 0.00 | 0.00 | 56 | 1008.8 |
| 20260506024349 | 69 | 257 | 1.7 | 7.0 | 0.00 | 0.00 | 0.00 | 56 | 1008.8 |
| 20260506023848 | 70 | 240 | 1.7 | 7.0 | 0.00 | 0.00 | 0.00 | 55 | 1008.8 |
| 20260506023348 | 70 | 272 | 1.7 | 7.0 | 0.00 | 0.00 | 0.00 | 55 | 1008.8 |
| 20260506022849 | 70 | 276 | 1.7 | 7.0 | 0.00 | 0.00 | 0.00 | 55 | 1008.8 |
| 20260506022346 | 70 | 261 | 1.7 | 7.0 | 0.00 | 0.00 | 0.00 | 55 | 1008.7 |
| 20260506021846 | 70 | 278 | 0.9 | 7.0 | 0.00 | 0.00 | 0.00 | 55 | 1008.9 |
| 20260506021346 | 70 | 265 | 0.9 | 4.3 | 0.00 | 0.00 | 0.00 | 54 | 1008.9 |
| 20260506021109 | 70 | 271 | 0.9 | 3.5 | 0.00 | 0.00 | 0.00 | 54 | 1008.9 |
| 20260506020344 | 70 | 280 | 0.9 | 4.3 | 0.00 | 0.00 | 0.00 | 54 | 1009.0 |
| 20260506015844 | 70 | 284 | 0.9 | 4.3 | 0.00 | 0.00 | 0.00 | 54 | 1009.0 |
| 20260506015344 | 70 | 233 | 0.9 | 3.5 | 0.00 | 0.00 | 0.00 | 54 | 1009.0 |
| 20260506014844 | 71 | 265 | 0.9 | 3.5 | 0.00 | 0.00 | 0.00 | 54 | 1009.0 |
| 20260506014344 | 71 | 259 | 0.9 | 3.5 | 0.00 | 0.00 | 0.00 | 53 | 1009.0 |
| 20260506013844 | 71 | 247 | 0.9 | 6.1 | 0.00 | 0.00 | 0.00 | 53 | 1009.1 |
| 20260506013604 | 71 | 276 | 0.9 | 6.1 | 0.00 | 0.00 | 0.00 | 53 | 1009.0 |
| 20260506012844 | 71 | 262 | 1.7 | 6.1 | 0.00 | 0.00 | 0.00 | 53 | 1008.9 |
| 20260506012345 | 71 | 249 | 1.7 | 6.1 | 0.00 | 0.00 | 0.00 | 53 | 1008.9 |
| 20260506012105 | 71 | 269 | 0.9 | 4.3 | 0.00 | 0.00 | 0.00 | 53 | 1008.7 |
| 20260506011344 | 71 | 241 | 0.0 | 2.6 | 0.00 | 0.00 | 0.00 | 53 | 1008.8 |
| 20260506010844 | 71 | 265 | 0.0 | 1.7 | 0.00 | 0.00 | 0.00 | 53 | 1008.9 |
| 20260506010603 | 71 | 266 | 0.9 | 7.8 | 0.00 | 0.00 | 0.00 | 53 | 1008.8 |
| 20260506005843 | 71 | 266 | 0.9 | 7.8 | 0.00 | 0.00 | 0.00 | 53 | 1008.5 |
| 20260506005342 | 71 | 286 | 1.7 | 7.8 | 0.00 | 0.00 | 0.00 | 52 | 1008.3 |
| 20260506004843 | 71 | 276 | 1.7 | 7.8 | 0.00 | 0.00 | 0.00 | 52 | 1007.8 |
| 20260506004343 | 72 | 235 | 1.7 | 7.0 | 0.00 | 0.00 | 0.00 | 52 | 1007.5 |
| 20260506003842 | 72 | 265 | 1.7 | 11.3 | 0.00 | 0.00 | 0.00 | 52 | 1007.5 |
| 20260506003341 | 72 | 245 | 1.7 | 11.3 | 0.00 | 0.00 | 0.00 | 52 | 1007.5 |
| 20260506003106 | 73 | 257 | 1.7 | 11.3 | 0.00 | 0.00 | 0.00 | 51 | 1007.4 |
| 20260506002601 | 73 | 266 | 2.6 | 11.3 | 0.00 | 0.00 | 0.00 | 51 | 1007.1 |
| 20260506001841 | 73 | 309 | 2.6 | 11.3 | 0.00 | 0.00 | 0.00 | 50 | 1007.0 |
| 20260506001342 | 73 | 306 | 1.7 | 11.3 | 0.00 | 0.00 | 0.00 | 51 | 1007.0 |
| 20260506000841 | 73 | 252 | 1.7 | 11.3 | 0.00 | 0.00 | 0.00 | 51 | 1006.9 |
| 20260506000340 | 73 | 124 | 1.7 | 11.3 | 0.00 | 0.00 | 0.00 | 50 | 1006.9 |
| 20260505235840 | 74 | 188 | 2.6 | 11.3 | 0.00 | 0.00 | 0.00 | 50 | 1006.7 |
| 20260505235339 | 74 | 276 | 2.6 | 7.8 | 0.00 | 0.00 | 0.00 | 50 | 1006.6 |
| 20260505234840 | 74 | 282 | 2.6 | 7.8 | 0.00 | 0.00 | 0.00 | 50 | 1006.6 |
| 20260505234600 | 74 | 168 | 2.6 | 6.1 | 0.00 | 0.00 | 0.00 | 50 | 1006.5 |
| 20260505233838 | 74 | 299 | 2.6 | 7.0 | 0.00 | 0.00 | 0.00 | 50 | 1006.6 |
| 20260505233557 | 74 | 282 | 1.7 | 7.0 | 0.00 | 0.00 | 0.00 | 50 | 1006.6 |
| 20260505232840 | 74 | 145 | 1.7 | 7.0 | 0.00 | 0.00 | 0.00 | 49 | 1006.6 |
| 20260505232340 | 75 | 222 | 2.6 | 7.0 | 0.00 | 0.00 | 0.00 | 49 | 1006.5 |
| 20260505231840 | 75 | 254 | 2.6 | 7.0 | 0.00 | 0.00 | 0.00 | 49 | 1006.3 |
| 20260505231557 | 75 | 241 | 3.5 | 8.7 | 0.00 | 0.00 | 0.00 | 49 | 1006.1 |
| 20260505230854 | 75 | 248 | 3.5 | 8.7 | 0.00 | 0.00 | 0.00 | 49 | 1006.0 |
| 20260505230340 | 75 | 276 | 2.6 | 7.0 | 0.00 | 0.00 | 0.00 | 49 | 1005.8 |
| 20260505225840 | 74 | 307 | 2.6 | 6.1 | 0.00 | 0.00 | 0.00 | 50 | 1005.7 |
| 20260505225340 | 74 | 257 | 2.6 | 10.4 | 0.00 | 0.00 | 0.00 | 50 | 1005.5 |
| 20260505224840 | 74 | 203 | 2.6 | 10.4 | 0.00 | 0.00 | 0.00 | 50 | 1005.4 |
| 20260505224337 | 74 | 160 | 3.5 | 10.4 | 0.00 | 0.00 | 0.00 | 50 | 1005.5 |
| 20260505224321 | 74 | 162 | 2.6 | 10.4 | 0.00 | 0.00 | 0.00 | 51 | 1005.3 |
| 20260505223338 | 73 | 158 | 2.6 | 10.4 | 0.00 | 0.00 | 0.00 | 51 | 1005.3 |
| 20260505222838 | 73 | 296 | 1.7 | 9.6 | 0.00 | 0.00 | 0.00 | 52 | 1005.1 |
| 20260505222337 | 73 | 277 | 1.7 | 9.6 | 0.00 | 0.00 | 0.00 | 53 | 1005.2 |
| 20260505221837 | 72 | 250 | 1.7 | 9.6 | 0.00 | 0.00 | 0.00 | 52 | 1005.1 |
| 20260505221558 | 72 | 259 | 1.7 | 5.2 | 0.00 | 0.00 | 0.00 | 52 | 1005.2 |
| 20260505220838 | 73 | 141 | 1.7 | 9.6 | 0.00 | 0.00 | 0.00 | 52 | 1005.0 |
| 20260505220337 | 73 | 273 | 2.6 | 9.6 | 0.00 | 0.00 | 0.00 | 52 | 1005.0 |
| 20260505215838 | 73 | 120 | 2.6 | 9.6 | 0.00 | 0.00 | 0.00 | 51 | 1004.9 |
| 20260505215337 | 73 | 77 | 3.5 | 9.6 | 0.00 | 0.00 | 0.00 | 51 | 1004.7 |
| 20260505214838 | 74 | 252 | 2.6 | 8.7 | 0.00 | 0.00 | 0.00 | 51 | 1004.8 |
| 20260505214335 | 73 | 225 | 2.6 | 8.7 | 0.00 | 0.00 | 0.00 | 51 | 1004.8 |
| 20260505213833 | 73 | 178 | 2.6 | 10.4 | 0.00 | 0.00 | 0.00 | 52 | 1004.7 |
| 20260505213332 | 73 | 287 | 2.6 | 10.4 | 0.00 | 0.00 | 0.00 | 52 | 1004.7 |
| 20260505212832 | 73 | 142 | 2.6 | 7.8 | 0.00 | 0.00 | 0.00 | 52 | 1004.7 |
| 20260505212332 | 73 | 174 | 2.6 | 9.6 | 0.00 | 0.00 | 0.00 | 52 | 1004.6 |
| 20260505211832 | 73 | 110 | 2.6 | 9.6 | 0.00 | 0.00 | 0.00 | 52 | 1004.6 |
| 20260505211559 | 73 | 158 | 2.6 | 9.6 | 0.00 | 0.00 | 0.00 | 52 | 1004.6 |
| 20260505210833 | 73 | 219 | 2.6 | 12.2 | 0.00 | 0.00 | 0.00 | 53 | 1004.6 |
| 20260505210550 | 72 | 278 | 2.6 | 12.2 | 0.00 | 0.00 | 0.00 | 53 | 1004.7 |
| 20260505205833 | 72 | 301 | 2.6 | 6.1 | 0.00 | 0.00 | 0.00 | 53 | 1004.6 |
| 20260505205333 | 72 | 204 | 2.6 | 7.8 | 0.00 | 0.00 | 0.00 | 53 | 1004.6 |
| 20260505204832 | 72 | 267 | 2.6 | 8.7 | 0.00 | 0.00 | 0.00 | 53 | 1004.8 |
| 20260505204331 | 73 | 134 | 2.6 | 8.7 | 0.00 | 0.00 | 0.00 | 51 | 1004.6 |
| 20260505204056 | 73 | 240 | 2.6 | 8.7 | 0.00 | 0.00 | 0.00 | 51 | 1004.5 |
| 20260505203331 | 73 | 293 | 2.6 | 8.7 | 0.00 | 0.00 | 0.00 | 51 | 1004.6 |
| 20260505202831 | 74 | 266 | 2.6 | 9.6 | 0.00 | 0.00 | 0.00 | 50 | 1004.8 |
| 20260505202331 | 74 | 181 | 2.6 | 9.6 | 0.00 | 0.00 | 0.00 | 49 | 1004.8 |
| 20260505202101 | 75 | 155 | 2.6 | 9.6 | 0.00 | 0.00 | 0.00 | 49 | 1004.6 |
| 20260505201331 | 75 | 269 | 2.6 | 9.6 | 0.00 | 0.00 | 0.00 | 48 | 1004.7 |
| 20260505200831 | 75 | 278 | 2.6 | 9.6 | 0.00 | 0.00 | 0.00 | 48 | 1004.8 |
| 20260505200332 | 76 | 165 | 3.5 | 9.6 | 0.00 | 0.00 | 0.00 | 49 | 1004.8 |
| 20260505195832 | 76 | 125 | 3.5 | 12.2 | 0.00 | 0.00 | 0.00 | 48 | 1004.7 |
| 20260505195552 | 76 | 153 | 3.5 | 12.2 | 0.00 | 0.00 | 0.00 | 48 | 1004.9 |
| 20260505194831 | 75 | 218 | 2.6 | 8.7 | 0.00 | 0.00 | 0.00 | 49 | 1004.7 |
| 20260505194331 | 75 | 245 | 2.6 | 8.7 | 0.00 | 0.00 | 0.00 | 49 | 1004.8 |
| 20260505194052 | 74 | 103 | 3.5 | 9.6 | 0.00 | 0.00 | 0.00 | 50 | 1005.0 |
| 20260505193332 | 74 | 256 | 3.5 | 10.4 | 0.00 | 0.00 | 0.00 | 51 | 1004.9 |
| 20260505192831 | 74 | 162 | 3.5 | 10.4 | 0.00 | 0.00 | 0.00 | 52 | 1005.2 |
| 20260505192555 | 74 | 208 | 3.5 | 10.4 | 0.00 | 0.00 | 0.00 | 51 | 1005.2 |
| 20260505191833 | 74 | 203 | 2.6 | 10.4 | 0.00 | 0.00 | 0.00 | 52 | 1005.5 |
| 20260505191333 | 74 | 326 | 2.6 | 12.2 | 0.00 | 0.00 | 0.00 | 53 | 1005.6 |
| 20260505190829 | 73 | 221 | 3.5 | 12.2 | 0.00 | 0.00 | 0.00 | 53 | 1005.4 |
| 20260505190330 | 73 | 152 | 2.6 | 8.7 | 0.00 | 0.00 | 0.00 | 53 | 1005.6 |
| 20260505185829 | 73 | 202 | 3.5 | 8.7 | 0.00 | 0.00 | 0.00 | 53 | 1005.8 |
| 20260505185820 | 74 | 136 | 3.5 | 8.7 | 0.00 | 0.00 | 0.00 | 52 | 1005.9 |
| 20260505184829 | 74 | 108 | 2.6 | 7.8 | 0.00 | 0.00 | 0.00 | 52 | 1006.0 |
| 20260505184329 | 74 | 85 | 3.5 | 8.7 | 0.00 | 0.00 | 0.00 | 52 | 1005.9 |
| 20260505183829 | 75 | 143 | 3.5 | 9.6 | 0.00 | 0.00 | 0.00 | 51 | 1006.1 |
| 20260505183329 | 75 | 124 | 2.6 | 9.6 | 0.00 | 0.00 | 0.00 | 49 | 1006.0 |
| 20260505182827 | 76 | 225 | 2.6 | 7.0 | 0.00 | 0.00 | 0.00 | 50 | 1006.0 |
| 20260505182327 | 76 | 79 | 2.6 | 7.0 | 0.00 | 0.00 | 0.00 | 50 | 1006.1 |
| 20260505181828 | 75 | 158 | 2.6 | 7.0 | 0.00 | 0.00 | 0.00 | 51 | 1006.2 |
| 20260505181327 | 75 | 142 | 2.6 | 6.1 | 0.00 | 0.00 | 0.00 | 50 | 1006.2 |
| 20260505180828 | 75 | 143 | 2.6 | 6.1 | 0.00 | 0.00 | 0.00 | 50 | 1006.2 |
| 20260505180327 | 75 | 214 | 3.5 | 7.0 | 0.00 | 0.00 | 0.00 | 50 | 1006.4 |
| 20260505175827 | 76 | 188 | 2.6 | 7.0 | 0.00 | 0.00 | 0.00 | 50 | 1006.4 |
| 20260505175553 | 76 | 82 | 2.6 | 7.0 | 0.00 | 0.00 | 0.00 | 50 | 1006.4 |
| 20260505174828 | 75 | 188 | 2.6 | 7.0 | 0.00 | 0.00 | 0.00 | 50 | 1006.5 |
| 20260505174327 | 75 | 176 | 2.6 | 10.4 | 0.00 | 0.00 | 0.00 | 50 | 1006.7 |
| 20260505173828 | 75 | 146 | 2.6 | 10.4 | 0.00 | 0.00 | 0.00 | 49 | 1006.6 |
| 20260505173328 | 76 | 143 | 3.5 | 10.4 | 0.00 | 0.00 | 0.00 | 49 | 1006.8 |
| 20260505172827 | 76 | 224 | 3.5 | 10.4 | 0.00 | 0.00 | 0.00 | 48 | 1006.8 |
| 20260505172809 | 78 | 252 | 2.6 | 7.0 | 0.00 | 0.00 | 0.00 | 45 | 1006.9 |
| 20260505171829 | 80 | 190 | 1.7 | 7.0 | 0.00 | 0.00 | 0.00 | 44 | 1006.9 |
| 20260505171548 | 81 | 166 | 1.7 | 7.8 | 0.00 | 0.00 | 0.00 | 44 | 1006.9 |
| 20260505170829 | 82 | 219 | 2.6 | 7.8 | 0.00 | 0.00 | 0.00 | 41 | 1007.0 |
| 20260505170328 | 82 | 283 | 2.6 | 11.3 | 0.00 | 0.00 | 0.00 | 41 | 1007.0 |
| 20260505165828 | 82 | 261 | 2.6 | 11.3 | 0.00 | 0.00 | 0.00 | 41 | 1007.1 |
| 20260505165325 | 82 | 232 | 2.6 | 11.3 | 0.00 | 0.00 | 0.00 | 40 | 1007.0 |
| 20260505164825 | 81 | 288 | 3.5 | 11.3 | 0.00 | 0.00 | 0.00 | 42 | 1007.1 |
| 20260505164325 | 81 | 260 | 3.5 | 7.0 | 0.00 | 0.00 | 0.00 | 40 | 1007.0 |
| 20260505163823 | 81 | 196 | 3.5 | 9.6 | 0.00 | 0.00 | 0.00 | 41 | 1007.1 |
| 20260505163324 | 81 | 263 | 3.5 | 9.6 | 0.00 | 0.00 | 0.00 | 41 | 1007.2 |
| 20260505162824 | 81 | 276 | 2.6 | 9.6 | 0.00 | 0.00 | 0.00 | 42 | 1007.4 |
| 20260505162541 | 81 | 254 | 2.6 | 10.4 | 0.00 | 0.00 | 0.00 | 41 | 1007.5 |
| 20260505161825 | 80 | 236 | 2.6 | 10.4 | 0.00 | 0.00 | 0.00 | 43 | 1007.7 |
| 20260505161818 | 79 | 264 | 3.5 | 10.4 | 0.00 | 0.00 | 0.00 | 43 | 1007.9 |
| 20260505160824 | 79 | 281 | 3.5 | 10.4 | 0.00 | 0.00 | 0.00 | 43 | 1008.0 |
| 20260505160323 | 79 | 42 | 2.6 | 10.4 | 0.00 | 0.00 | 0.00 | 43 | 1008.1 |
| 20260505153324 | 77 | 253 | 2.6 | 9.6 | 0.00 | 0.00 | 0.00 | 45 | 1008.4 |
| 20260505152824 | 77 | 250 | 2.6 | 9.6 | 0.00 | 0.00 | 0.00 | 46 | 1008.5 |
| 20260505152325 | 77 | 275 | 3.5 | 9.6 | 0.00 | 0.00 | 0.00 | 46 | 1008.6 |
| 20260505151825 | 76 | 279 | 2.6 | 9.6 | 0.00 | 0.00 | 0.00 | 47 | 1008.6 |
| 20260505151324 | 76 | 281 | 2.6 | 7.8 | 0.00 | 0.00 | 0.00 | 46 | 1008.6 |
| 20260505150824 | 76 | 169 | 1.7 | 7.0 | 0.00 | 0.00 | 0.00 | 46 | 1008.7 |
| 20260505150539 | 76 | 276 | 1.7 | 8.7 | 0.00 | 0.00 | 0.00 | 47 | 1008.8 |
| 20260505140319 | 72 | 282 | 2.6 | 7.0 | 0.00 | 0.00 | 0.00 | 51 | 1009.0 |
| 20260505124815 | 67 | 256 | 1.7 | 7.0 | 0.00 | 0.00 | 0.00 | 57 | 1009.2 |
| 20260505124315 | 66 | 245 | 1.7 | 11.3 | 0.00 | 0.00 | 0.00 | 57 | 1009.2 |
| 20260505123815 | 66 | 267 | 2.6 | 11.3 | 0.00 | 0.00 | 0.00 | 56 | 1009.3 |
| 20260505123315 | 66 | 287 | 3.5 | 11.3 | 0.00 | 0.00 | 0.00 | 56 | 1009.4 |
| 20260505122814 | 67 | 285 | 3.5 | 11.3 | 0.00 | 0.00 | 0.00 | 55 | 1009.4 |
| 20260505122327 | 66 | 264 | 1.7 | 8.7 | 0.00 | 0.00 | 0.00 | 56 | 1009.1 |
| 20260505121814 | 66 | 302 | 1.7 | 8.7 | 0.00 | 0.00 | 0.00 | 56 | 1008.9 |
| 20260505121315 | 66 | 266 | 2.6 | 8.7 | 0.00 | 0.00 | 0.00 | 57 | 1009.0 |
| 20260505120816 | 65 | 337 | 1.7 | 4.3 | 0.00 | 0.00 | 0.00 | 58 | 1008.9 |
| 20260505120312 | 65 | 236 | 0.9 | 4.3 | 0.00 | 0.00 | 0.00 | 58 | 1008.8 |
| 20260505120033 | 64 | 233 | 1.7 | 7.8 | 0.00 | 0.00 | 0.00 | 59 | 1008.9 |
| 20260505115313 | 63 | 274 | 1.7 | 7.8 | 0.00 | 0.00 | 0.00 | 60 | 1009.0 |
| 20260505114812 | 63 | 255 | 1.7 | 5.2 | 0.00 | 0.00 | 0.00 | 60 | 1008.9 |
| 20260505114312 | 62 | 255 | 0.9 | 5.2 | 0.00 | 0.00 | 0.00 | 61 | 1009.0 |
| 20260505113812 | 62 | 277 | 1.7 | 7.8 | 0.00 | 0.00 | 0.00 | 61 | 1009.1 |
| 20260505113313 | 61 | 265 | 1.7 | 7.8 | 0.00 | 0.00 | 0.00 | 61 | 1009.2 |
| 20260505112813 | 61 | 264 | 0.9 | 7.8 | 0.00 | 0.00 | 0.00 | 62 | 1009.2 |
| 20260505112312 | 60 | 264 | 1.7 | 7.8 | 0.00 | 0.00 | 0.00 | 62 | 1009.2 |
| 20260505111813 | 60 | 278 | 1.7 | 5.2 | 0.00 | 0.00 | 0.00 | 62 | 1009.2 |
| 20260505111313 | 59 | 307 | 0.9 | 3.5 | 0.00 | 0.00 | 0.00 | 63 | 1009.2 |
| 20260505110811 | 59 | 44 | 0.0 | 1.7 | 0.00 | 0.00 | 0.00 | 63 | 1009.2 |
| 20260505110311 | 58 | 252 | 0.9 | 5.2 | 0.00 | 0.00 | 0.00 | 64 | 1009.2 |